Time,TemperatureF,DewpointF,PressureIn,WindDirection,WindDirectionDegrees,WindSpeedMPH,WindSpeedGustMPH,Humidity,HourlyPrecipIn,Conditions,Clouds,dailyrainin,SoftwareType,DateUTC
2013-05-23 00:01:00,48.1,32.7,29.67,SE,134,0.0,0.0,55,0.00,,,0.00,WeatherCatV1.14B232,2013-05-23 06:01:00,
2013-05-23 00:06:00,47.9,32.1,29.67,SSE,158,0.0,1.0,54,0.00,,,0.00,WeatherCatV1.14B232,2013-05-23 06:06:00,
2013-05-23 00:11:00,47.5,33.5,29.67,SSE,158,0.0,0.0,58,0.00,,,0.00,WeatherCatV1.14B232,2013-05-23 06:11:00,
2013-05-23 00:16:00,47.0,33.8,29.67,SSE,158,1.0,1.0,60,0.00,,,0.00,WeatherCatV1.14B232,2013-05-23 06:16:00,
2013-05-23 00:21:00,46.8,33.7,29.67,South,174,0.0,1.0,60,0.00,,,0.00,WeatherCatV1.14B232,2013-05-23 06:21:00,
2013-05-23 00:26:00,46.6,33.9,29.67,South,173,0.0,0.0,61,0.00,,,0.00,WeatherCatV1.14B232,2013-05-23 06:26:00,
2013-05-23 00:31:00,46.4,34.1,29.67,SSW,203,2.0,2.0,62,0.00,,,0.00,WeatherCatV1.14B232,2013-05-23 06:31:00,
2013-05-23 00:36:00,45.8,34.7,29.67,SSW,193,2.0,3.0,65,0.00,,,0.00,WeatherCatV1.14B232,2013-05-23 06:36:00,
2013-05-23 00:41:00,45.6,30.4,29.67,South,188,0.0,0.0,55,0.00,,,0.00,WeatherCatV1.14B232,2013-05-23 06:41:00,
2013-05-23 00:46:00,45.9,32.8,29.67,SSE,160,2.0,3.0,60,0.00,,,0.00,WeatherCatV1.14B232,2013-05-23 06:46:00,
2013-05-23 00:51:00,45.6,33.3,29.67,WSW,242,0.0,0.0,62,0.00,,,0.00,WeatherCatV1.14B232,2013-05-23 06:51:00,
2013-05-23 00:56:00,45.3,33.5,29.66,WNW,290,0.0,1.0,63,0.00,,,0.00,WeatherCatV1.14B232,2013-05-23 06:56:00,
2013-05-23 01:01:00,45.0,34.7,29.67,West,259,2.0,3.0,67,0.00,,,0.00,WeatherCatV1.14B232,2013-05-23 07:01:00,
2013-05-23 01:06:00,44.8,33.8,29.67,ENE,77,0.0,1.0,65,0.00,,,0.00,WeatherCatV1.14B232,2013-05-23 07:06:00,
2013-05-23 01:11:00,44.6,34.0,29.67,SSE,158,0.0,1.0,66,0.00,,,0.00,WeatherCatV1.14B232,2013-05-23 07:11:00,
2013-05-23 01:16:00,44.4,32.2,29.67,SSW,211,1.0,2.0,62,0.00,,,0.00,WeatherCatV1.14B232,2013-05-23 07:16:00,
2013-05-23 01:21:00,44.5,33.1,29.67,WSW,240,0.0,1.0,64,0.00,,,0.00,WeatherCatV1.14B232,2013-05-23 07:21:00,
2013-05-23 01:26:00,44.4,33.0,29.67,East,79,1.0,2.0,64,0.00,,,0.00,WeatherCatV1.14B232,2013-05-23 07:26:00,
2013-05-23 01:31:00,44.2,33.9,29.68,South,173,0.0,1.0,67,0.00,,,0.00,WeatherCatV1.14B232,2013-05-23 07:31:00,
2013-05-23 01:36:00,44.0,33.8,29.68,East,94,0.0,1.0,67,0.00,,,0.00,WeatherCatV1.14B232,2013-05-23 07:36:00,
2013-05-23 01:41:00,43.8,32.8,29.68,SSW,205,0.0,1.0,65,0.00,,,0.00,WeatherCatV1.14B232,2013-05-23 07:41:00,
2013-05-23 01:46:00,43.6,33.7,29.68,West,277,0.0,1.0,68,0.00,,,0.00,WeatherCatV1.14B232,2013-05-23 07:46:00,
2013-05-23 01:51:00,43.3,33.1,29.67,NNW,338,0.0,2.0,67,0.00,,,0.00,WeatherCatV1.14B232,2013-05-23 07:51:00,
2013-05-23 01:56:00,43.2,33.0,29.68,ENE,64,0.0,0.0,67,0.00,,,0.00,WeatherCatV1.14B232,2013-05-23 07:56:00,
2013-05-23 02:01:00,42.9,33.8,29.68,ENE,64,0.0,0.0,70,0.00,,,0.00,WeatherCatV1.14B232,2013-05-23 08:01:00,
2013-05-23 02:06:00,42.6,31.7,29.67,SSW,195,0.0,1.0,65,0.00,,,0.00,WeatherCatV1.14B232,2013-05-23 08:06:00,
2013-05-23 02:11:00,42.4,33.0,29.68,SSW,195,0.0,0.0,69,0.00,,,0.00,WeatherCatV1.14B232,2013-05-23 08:11:00,
2013-05-23 02:16:00,42.1,33.4,29.68,SSW,195,0.0,0.0,71,0.00,,,0.00,WeatherCatV1.14B232,2013-05-23 08:16:00,
2013-05-23 02:21:00,41.8,33.4,29.68,SSW,195,0.0,0.0,72,0.00,,,0.00,WeatherCatV1.14B232,2013-05-23 08:21:00,
2013-05-23 02:26:00,41.7,34.0,29.68,WSW,253,0.0,2.0,74,0.00,,,0.00,WeatherCatV1.14B232,2013-05-23 08:26:00,
2013-05-23 02:31:00,41.6,32.9,29.68,East,97,0.0,0.0,71,0.00,,,0.00,WeatherCatV1.14B232,2013-05-23 08:31:00,
2013-05-23 02:36:00,41.7,33.3,29.69,ENE,72,2.0,3.0,72,0.00,,,0.00,WeatherCatV1.14B232,2013-05-23 08:36:00,
2013-05-23 02:41:00,42.1,33.4,29.69,WSW,255,1.0,3.0,71,0.00,,,0.00,WeatherCatV1.14B232,2013-05-23 08:41:00,
2013-05-23 02:46:00,42.1,33.0,29.68,North,1,1.0,2.0,70,0.00,,,0.00,WeatherCatV1.14B232,2013-05-23 08:46:00,
2013-05-23 02:51:00,42.0,32.9,29.69,WSW,255,0.0,0.0,70,0.00,,,0.00,WeatherCatV1.14B232,2013-05-23 08:51:00,
2013-05-23 02:56:00,41.9,32.5,29.68,West,280,1.0,1.0,69,0.00,,,0.00,WeatherCatV1.14B232,2013-05-23 08:56:00,
2013-05-23 03:01:00,41.9,32.8,29.69,SSE,158,0.0,4.0,70,0.00,,,0.00,WeatherCatV1.14B232,2013-05-23 09:01:00,
2013-05-23 03:06:00,41.8,30.9,29.69,SSW,211,2.0,3.0,65,0.00,,,0.00,WeatherCatV1.14B232,2013-05-23 09:06:00,
2013-05-23 03:11:00,41.9,32.5,29.69,WSW,254,0.0,0.0,69,0.00,,,0.00,WeatherCatV1.14B232,2013-05-23 09:11:00,
2013-05-23 03:16:00,41.5,33.2,29.70,SSW,210,0.0,0.0,72,0.00,,,0.00,WeatherCatV1.14B232,2013-05-23 09:16:00,
2013-05-23 03:21:00,41.2,32.9,29.70,ENE,68,0.0,2.0,72,0.00,,,0.00,WeatherCatV1.14B232,2013-05-23 09:21:00,
2013-05-23 03:26:00,41.1,33.5,29.70,WSW,255,0.0,1.0,74,0.00,,,0.00,WeatherCatV1.14B232,2013-05-23 09:26:00,
2013-05-23 03:31:00,40.7,33.1,29.70,WSW,255,0.0,0.0,74,0.00,,,0.00,WeatherCatV1.14B232,2013-05-23 09:31:00,
2013-05-23 03:36:00,40.5,33.2,29.70,ESE,106,0.0,1.0,75,0.00,,,0.00,WeatherCatV1.14B232,2013-05-23 09:36:00,
2013-05-23 03:41:00,40.3,32.0,29.70,SSE,168,0.0,2.0,72,0.00,,,0.00,WeatherCatV1.14B232,2013-05-23 09:41:00,
2013-05-23 03:46:00,40.1,33.5,29.70,NNE,15,0.0,0.0,77,0.00,,,0.00,WeatherCatV1.14B232,2013-05-23 09:46:00,
2013-05-23 03:51:00,39.9,33.0,29.70,SW,233,1.0,1.0,76,0.00,,,0.00,WeatherCatV1.14B232,2013-05-23 09:51:00,
2013-05-23 03:56:00,39.6,33.3,29.70,North,7,0.0,1.0,78,0.00,,,0.00,WeatherCatV1.14B232,2013-05-23 09:56:00,
2013-05-23 04:01:00,39.4,33.1,29.71,North,8,1.0,1.0,78,0.00,,,0.00,WeatherCatV1.14B232,2013-05-23 10:01:00,
2013-05-23 04:06:00,39.2,33.2,29.71,SSE,158,0.0,0.0,79,0.00,,,0.00,WeatherCatV1.14B232,2013-05-23 10:06:00,
2013-05-23 04:11:00,39.0,33.4,29.71,SSE,158,0.0,2.0,80,0.00,,,0.00,WeatherCatV1.14B232,2013-05-23 10:11:00,
2013-05-23 04:16:00,38.8,33.2,29.71,SSE,150,0.0,0.0,80,0.00,,,0.00,WeatherCatV1.14B232,2013-05-23 10:16:00,
2013-05-23 04:21:00,38.7,32.8,29.71,SW,214,1.0,1.0,79,0.00,,,0.00,WeatherCatV1.14B232,2013-05-23 10:21:00,
2013-05-23 04:26:00,38.6,33.0,29.71,SE,127,0.0,0.0,80,0.00,,,0.00,WeatherCatV1.14B232,2013-05-23 10:26:00,
2013-05-23 04:29:00,38.6,33.0,29.72,South,187,1.0,2.0,80,0.00,,,0.00,WeatherCatV1.14B232,2013-05-23 10:29:00,
2013-05-23 04:34:00,38.6,33.0,29.72,SE,143,0.0,1.0,80,0.00,,,0.00,WeatherCatV1.14B232,2013-05-23 10:34:00,
2013-05-23 04:39:00,38.5,33.5,29.72,SE,143,0.0,0.0,82,0.00,,,0.00,WeatherCatV1.14B232,2013-05-23 10:39:00,
2013-05-23 04:44:00,38.3,33.0,29.72,East,85,1.0,1.0,81,0.00,,,0.00,WeatherCatV1.14B232,2013-05-23 10:44:00,
2013-05-23 04:49:00,38.0,33.3,29.72,West,263,0.0,0.0,83,0.00,,,0.00,WeatherCatV1.14B232,2013-05-23 10:49:00,
2013-05-23 04:54:00,37.7,33.0,29.72,South,187,1.0,1.0,83,0.00,,,0.00,WeatherCatV1.14B232,2013-05-23 10:54:00,
2013-05-23 04:59:00,37.7,33.0,29.72,ENE,61,0.0,0.0,83,0.00,,,0.00,WeatherCatV1.14B232,2013-05-23 10:59:00,
2013-05-23 05:04:00,37.6,32.9,29.72,ENE,68,0.0,1.0,83,0.00,,,0.00,WeatherCatV1.14B232,2013-05-23 11:04:00,
2013-05-23 05:09:00,37.3,32.0,29.72,SE,132,0.0,2.0,81,0.00,,,0.00,WeatherCatV1.14B232,2013-05-23 11:09:00,
2013-05-23 05:14:00,37.2,32.5,29.72,SSE,163,0.0,2.0,83,0.00,,,0.00,WeatherCatV1.14B232,2013-05-23 11:14:00,
2013-05-23 05:19:00,37.4,31.8,29.73,SSE,156,0.0,2.0,80,0.00,,,0.00,WeatherCatV1.14B232,2013-05-23 11:19:00,
2013-05-23 05:24:00,37.5,32.2,29.72,NNE,25,0.0,1.0,81,0.00,,,0.00,WeatherCatV1.14B232,2013-05-23 11:24:00,
2013-05-23 05:29:00,37.4,32.1,29.73,NNE,25,0.0,0.0,81,0.00,,,0.00,WeatherCatV1.14B232,2013-05-23 11:29:00,
2013-05-23 05:34:00,37.4,32.4,29.73,SW,221,0.0,1.0,82,0.00,,,0.00,WeatherCatV1.14B232,2013-05-23 11:34:00,
2013-05-23 05:39:00,37.2,32.2,29.73,South,173,1.0,2.0,82,0.00,,,0.00,WeatherCatV1.14B232,2013-05-23 11:39:00,
2013-05-23 05:44:00,37.1,32.4,29.73,SE,127,0.0,0.0,83,0.00,,,0.00,WeatherCatV1.14B232,2013-05-23 11:44:00,
2013-05-23 05:49:00,36.8,32.4,29.73,WNW,298,0.0,0.0,84,0.00,,,0.00,WeatherCatV1.14B232,2013-05-23 11:49:00,
2013-05-23 05:54:00,36.7,32.3,29.74,ESE,123,0.0,1.0,84,0.00,,,0.00,WeatherCatV1.14B232,2013-05-23 11:54:00,
2013-05-23 05:59:00,36.6,32.5,29.74,SSW,197,2.0,2.0,85,0.00,,,0.00,WeatherCatV1.14B232,2013-05-23 11:59:00,
2013-05-23 06:04:00,36.5,31.8,29.74,SSW,197,1.0,2.0,83,0.00,,,0.00,WeatherCatV1.14B232,2013-05-23 12:04:00,
2013-05-23 06:09:00,36.7,31.7,29.74,ESE,112,0.0,1.0,82,0.00,,,0.00,WeatherCatV1.14B232,2013-05-23 12:09:00,
2013-05-23 06:14:00,37.1,31.2,29.74,ESE,112,0.0,0.0,79,0.00,,,0.00,WeatherCatV1.14B232,2013-05-23 12:14:00,
2013-05-23 06:19:00,37.2,31.6,29.74,NW,317,0.0,0.0,80,0.00,,,0.00,WeatherCatV1.14B232,2013-05-23 12:19:00,
2013-05-23 06:24:00,37.3,32.0,29.74,North,354,1.0,3.0,81,0.00,,,0.00,WeatherCatV1.14B232,2013-05-23 12:24:00,
2013-05-23 06:29:00,37.9,32.0,29.75,NW,323,0.0,2.0,79,0.00,,,0.00,WeatherCatV1.14B232,2013-05-23 12:29:00,
2013-05-23 06:34:00,38.7,32.4,29.75,NNW,330,0.0,1.0,78,0.00,,,0.00,WeatherCatV1.14B232,2013-05-23 12:34:00,
2013-05-23 06:39:00,39.6,33.0,29.75,SW,221,1.0,1.0,77,0.00,,,0.00,WeatherCatV1.14B232,2013-05-23 12:39:00,
2013-05-23 06:44:00,40.4,33.4,29.75,SSE,166,2.0,2.0,76,0.00,,,0.00,WeatherCatV1.14B232,2013-05-23 12:44:00,
2013-05-23 06:49:00,41.5,34.2,29.75,East,94,1.0,1.0,75,0.00,,,0.00,WeatherCatV1.14B232,2013-05-23 12:49:00,
2013-05-23 06:54:00,42.6,33.9,29.75,SSE,154,1.0,1.0,71,0.00,,,0.00,WeatherCatV1.14B232,2013-05-23 12:54:00,
2013-05-23 06:59:00,43.9,34.0,29.75,East,96,0.0,0.0,68,0.00,,,0.00,WeatherCatV1.14B232,2013-05-23 12:59:00,
2013-05-23 07:04:00,45.0,34.7,29.75,East,96,0.0,0.0,67,0.00,,,0.00,WeatherCatV1.14B232,2013-05-23 13:04:00,
2013-05-23 07:09:00,46.6,34.7,29.75,East,96,0.0,1.0,63,0.00,,,0.00,WeatherCatV1.14B232,2013-05-23 13:09:00,
2013-05-23 07:14:00,47.3,34.9,29.75,WNW,302,0.0,0.0,62,0.00,,,0.00,WeatherCatV1.14B232,2013-05-23 13:14:00,
2013-05-23 07:19:00,47.9,34.7,29.75,NNW,335,0.0,1.0,60,0.00,,,0.00,WeatherCatV1.14B232,2013-05-23 13:19:00,
2013-05-23 07:24:00,48.6,35.8,29.75,NNE,17,1.0,1.0,61,0.00,,,0.00,WeatherCatV1.14B232,2013-05-23 13:24:00,
2013-05-23 07:29:00,49.5,35.8,29.74,NNE,18,0.0,1.0,59,0.00,,,0.00,WeatherCatV1.14B232,2013-05-23 13:29:00,
2013-05-23 07:34:00,50.8,36.1,29.74,SSE,155,0.0,1.0,57,0.00,,,0.00,WeatherCatV1.14B232,2013-05-23 13:34:00,
2013-05-23 07:39:00,51.9,35.3,29.74,East,98,1.0,1.0,53,0.00,,,0.00,WeatherCatV1.14B232,2013-05-23 13:39:00,
2013-05-23 07:44:00,52.2,35.1,29.74,SW,233,0.0,1.0,52,0.00,,,0.00,WeatherCatV1.14B232,2013-05-23 13:44:00,
2013-05-23 07:49:00,53.1,35.9,29.74,WSW,253,0.0,0.0,52,0.00,,,0.00,WeatherCatV1.14B232,2013-05-23 13:49:00,
2013-05-23 07:54:00,54.0,36.3,29.74,SSE,158,0.0,2.0,51,0.00,,,0.00,WeatherCatV1.14B232,2013-05-23 13:54:00,
2013-05-23 07:59:00,55.0,36.2,29.74,South,172,0.0,1.0,49,0.00,,,0.00,WeatherCatV1.14B232,2013-05-23 13:59:00,
2013-05-23 08:04:00,55.2,34.8,29.74,NNE,22,0.0,0.0,46,0.00,,,0.00,WeatherCatV1.14B232,2013-05-23 14:04:00,
2013-05-23 08:09:00,56.1,35.6,29.74,ESE,108,1.0,1.0,46,0.00,,,0.00,WeatherCatV1.14B232,2013-05-23 14:09:00,
2013-05-23 08:14:00,57.2,35.5,29.73,East,81,0.0,1.0,44,0.00,,,0.00,WeatherCatV1.14B232,2013-05-23 14:14:00,
2013-05-23 08:19:00,58.2,36.4,29.74,SSE,157,1.0,1.0,44,0.00,,,0.00,WeatherCatV1.14B232,2013-05-23 14:19:00,
2013-05-23 08:24:00,58.7,35.7,29.74,South,176,0.0,3.0,42,0.00,,,0.00,WeatherCatV1.14B232,2013-05-23 14:24:00,
2013-05-23 08:29:00,58.6,35.6,29.73,ESE,121,0.0,3.0,42,0.00,,,0.00,WeatherCatV1.14B232,2013-05-23 14:29:00,
2013-05-23 08:34:00,59.1,34.2,29.74,ESE,105,0.0,4.0,39,0.00,,,0.00,WeatherCatV1.14B232,2013-05-23 14:34:00,
2013-05-23 08:39:00,59.9,35.5,29.74,SSE,156,0.0,2.0,40,0.00,,,0.00,WeatherCatV1.14B232,2013-05-23 14:39:00,
2013-05-23 08:44:00,60.1,35.1,29.74,NNW,332,4.0,6.0,39,0.00,,,0.00,WeatherCatV1.14B232,2013-05-23 14:44:00,
2013-05-23 08:49:00,60.0,36.2,29.74,SSW,205,0.0,2.0,41,0.00,,,0.00,WeatherCatV1.14B232,2013-05-23 14:49:00,
2013-05-23 08:54:00,61.2,36.7,29.73,WNW,288,0.0,1.0,40,0.00,,,0.00,WeatherCatV1.14B232,2013-05-23 14:54:00,
2013-05-23 08:59:00,62.1,36.2,29.73,NNE,32,2.0,4.0,38,0.00,,,0.00,WeatherCatV1.14B232,2013-05-23 14:59:00,
2013-05-23 09:04:00,63.2,36.5,29.73,NNW,348,0.0,1.0,37,0.00,,,0.00,WeatherCatV1.14B232,2013-05-23 15:04:00,
2013-05-23 09:09:00,64.9,35.9,29.73,NNW,335,2.0,4.0,34,0.00,,,0.00,WeatherCatV1.14B232,2013-05-23 15:09:00,
2013-05-23 09:14:00,65.4,36.3,29.73,North,1,0.0,1.0,34,0.00,,,0.00,WeatherCatV1.14B232,2013-05-23 15:14:00,
2013-05-23 09:19:00,66.9,37.6,29.73,ENE,70,0.0,1.0,34,0.00,,,0.00,WeatherCatV1.14B232,2013-05-23 15:19:00,
2013-05-23 09:24:00,67.4,36.5,29.72,ENE,71,2.0,2.0,32,0.00,,,0.00,WeatherCatV1.14B232,2013-05-23 15:24:00,
2013-05-23 09:29:00,68.1,37.9,29.72,SSE,165,3.0,4.0,33,0.00,,,0.00,WeatherCatV1.14B232,2013-05-23 15:29:00,
2013-05-23 09:34:00,67.5,38.9,29.72,East,89,2.0,7.0,35,0.00,,,0.00,WeatherCatV1.14B232,2013-05-23 15:34:00,
2013-05-23 09:39:00,67.0,39.2,29.72,South,181,2.0,5.0,36,0.00,,,0.00,WeatherCatV1.14B232,2013-05-23 15:39:00,
2013-05-23 09:44:00,66.7,38.2,29.72,North,356,0.0,5.0,35,0.00,,,0.00,WeatherCatV1.14B232,2013-05-23 15:44:00,
2013-05-23 09:49:00,67.0,37.7,29.71,ESE,105,1.0,1.0,34,0.00,,,0.00,WeatherCatV1.14B232,2013-05-23 15:49:00,
2013-05-23 09:54:00,67.5,37.4,29.70,East,91,3.0,4.0,33,0.00,,,0.00,WeatherCatV1.14B232,2013-05-23 15:54:00,
2013-05-23 09:59:00,68.0,38.6,29.70,SSE,164,1.0,4.0,34,0.00,,,0.00,WeatherCatV1.14B232,2013-05-23 15:59:00,
2013-05-23 10:04:00,69.3,37.4,29.70,South,184,2.0,5.0,31,0.00,,,0.00,WeatherCatV1.14B232,2013-05-23 16:04:00,
2013-05-23 10:09:00,70.5,35.8,29.70,ENE,72,2.0,2.0,28,0.00,,,0.00,WeatherCatV1.14B232,2013-05-23 16:09:00,
2013-05-23 10:14:00,71.0,33.4,29.69,ENE,71,1.0,4.0,25,0.00,,,0.00,WeatherCatV1.14B232,2013-05-23 16:14:00,
2013-05-23 10:19:00,72.1,37.2,29.69,NNW,329,2.0,4.0,28,0.00,,,0.00,WeatherCatV1.14B232,2013-05-23 16:19:00,
2013-05-23 10:24:00,72.6,32.7,29.68,WSW,257,7.0,16.0,23,0.00,,,0.00,WeatherCatV1.14B232,2013-05-23 16:24:00,
2013-05-23 10:29:00,73.2,27.2,29.68,South,174,4.0,10.0,18,0.00,,,0.00,WeatherCatV1.14B232,2013-05-23 16:29:00,
2013-05-23 10:34:00,74.1,27.9,29.68,SSE,164,2.0,7.0,18,0.00,,,0.00,WeatherCatV1.14B232,2013-05-23 16:34:00,
2013-05-23 10:39:00,74.3,26.7,29.68,South,188,2.0,10.0,17,0.00,,,0.00,WeatherCatV1.14B232,2013-05-23 16:39:00,
2013-05-23 10:44:00,74.5,25.4,29.68,ESE,102,7.0,9.0,16,0.00,,,0.00,WeatherCatV1.14B232,2013-05-23 16:44:00,
2013-05-23 10:49:00,74.4,22.1,29.67,SE,127,9.0,16.0,14,0.00,,,0.00,WeatherCatV1.14B232,2013-05-23 16:49:00,
2013-05-23 10:54:00,74.4,26.7,29.67,SSE,156,2.0,17.0,17,0.00,,,0.00,WeatherCatV1.14B232,2013-05-23 16:54:00,
2013-05-23 10:59:00,75.2,24.4,29.67,West,274,7.0,16.0,15,0.00,,,0.00,WeatherCatV1.14B232,2013-05-23 16:59:00,
2013-05-23 11:04:00,75.4,26.1,29.66,ESE,112,8.0,11.0,16,0.00,,,0.00,WeatherCatV1.14B232,2013-05-23 17:04:00,
2013-05-23 11:09:00,75.5,23.0,29.66,SSE,167,16.0,18.0,14,0.00,,,0.00,WeatherCatV1.14B232,2013-05-23 17:09:00,
2013-05-23 11:14:00,75.2,19.1,29.67,West,267,4.0,14.0,12,0.00,,,0.00,WeatherCatV1.14B232,2013-05-23 17:14:00,
2013-05-23 11:19:00,75.3,21.1,29.66,SE,143,11.0,15.0,13,0.00,,,0.00,WeatherCatV1.14B232,2013-05-23 17:19:00,
2013-05-23 11:24:00,75.3,22.8,29.66,SW,219,15.0,15.0,14,0.00,,,0.00,WeatherCatV1.14B232,2013-05-23 17:24:00,
2013-05-23 11:29:00,75.8,23.2,29.66,SE,139,1.0,12.0,14,0.00,,,0.00,WeatherCatV1.14B232,2013-05-23 17:29:00,
2013-05-23 11:34:00,76.1,25.1,29.66,SSW,212,3.0,8.0,15,0.00,,,0.00,WeatherCatV1.14B232,2013-05-23 17:34:00,
2013-05-23 11:39:00,76.4,23.7,29.65,East,86,2.0,5.0,14,0.00,,,0.00,WeatherCatV1.14B232,2013-05-23 17:39:00,
2013-05-23 11:44:00,76.8,27.2,29.65,SE,134,4.0,7.0,16,0.00,,,0.00,WeatherCatV1.14B232,2013-05-23 17:44:00,
2013-05-23 11:49:00,77.1,30.3,29.65,WSW,239,3.0,6.0,18,0.00,,,0.00,WeatherCatV1.14B232,2013-05-23 17:49:00,
2013-05-23 11:54:00,77.3,27.6,29.64,SSE,164,4.0,4.0,16,0.00,,,0.00,WeatherCatV1.14B232,2013-05-23 17:54:00,
2013-05-23 11:59:00,77.4,26.1,29.64,SSW,212,9.0,12.0,15,0.00,,,0.00,WeatherCatV1.14B232,2013-05-23 17:59:00,
2013-05-23 12:05:00,77.4,26.1,29.64,East,92,3.0,5.0,15,0.00,,,0.00,WeatherCatV1.14B232,2013-05-23 18:05:00,
2013-05-23 12:10:00,77.0,24.2,29.64,SSE,156,2.0,8.0,14,0.00,,,0.00,WeatherCatV1.14B232,2013-05-23 18:10:00,
2013-05-23 12:15:00,77.2,26.0,29.63,NNW,342,1.0,1.0,15,0.00,,,0.00,WeatherCatV1.14B232,2013-05-23 18:15:00,
2013-05-23 12:20:00,78.2,26.8,29.64,ESE,118,5.0,7.0,15,0.00,,,0.00,WeatherCatV1.14B232,2013-05-23 18:20:00,
2013-05-23 12:25:00,78.5,23.6,29.63,SSE,149,5.0,5.0,13,0.00,,,0.00,WeatherCatV1.14B232,2013-05-23 18:25:00,
2013-05-23 12:30:00,79.0,24.0,29.63,SSW,208,6.0,11.0,13,0.00,,,0.00,WeatherCatV1.14B232,2013-05-23 18:30:00,
2013-05-23 12:35:00,78.1,23.3,29.62,West,264,7.0,19.0,13,0.00,,,0.00,WeatherCatV1.14B232,2013-05-23 18:35:00,
2013-05-23 12:40:00,77.8,23.0,29.63,SW,231,2.0,22.0,13,0.00,,,0.00,WeatherCatV1.14B232,2013-05-23 18:40:00,
2013-05-23 12:45:00,77.8,21.1,29.63,WSW,252,12.0,19.0,12,0.00,,,0.00,WeatherCatV1.14B232,2013-05-23 18:45:00,
2013-05-23 12:50:00,77.6,21.0,29.63,WSW,252,4.0,27.0,12,0.00,,,0.00,WeatherCatV1.14B232,2013-05-23 18:50:00,
2013-05-23 12:55:00,78.0,23.2,29.62,WSW,249,7.0,17.0,13,0.00,,,0.00,WeatherCatV1.14B232,2013-05-23 18:55:00,
2013-05-23 13:00:00,78.3,25.2,29.62,NNW,328,4.0,12.0,14,0.00,,,0.00,WeatherCatV1.14B232,2013-05-23 19:00:00,
2013-05-23 13:05:00,78.3,25.2,29.63,SSE,160,8.0,19.0,14,0.00,,,0.00,WeatherCatV1.14B232,2013-05-23 19:05:00,
2013-05-23 13:10:00,78.5,25.3,29.62,WSW,249,8.0,11.0,14,0.00,,,0.00,WeatherCatV1.14B232,2013-05-23 19:10:00,
2013-05-23 13:15:00,78.7,23.7,29.62,SSE,147,6.0,15.0,13,0.00,,,0.00,WeatherCatV1.14B232,2013-05-23 19:15:00,
2013-05-23 13:20:00,78.4,19.5,29.62,WSW,257,7.0,14.0,11,0.00,,,0.00,WeatherCatV1.14B232,2013-05-23 19:20:00,
2013-05-23 13:25:00,78.4,21.6,29.61,WSW,253,6.0,22.0,12,0.00,,,0.00,WeatherCatV1.14B232,2013-05-23 19:25:00,
2013-05-23 13:30:00,78.7,21.8,29.61,SSE,163,3.0,12.0,12,0.00,,,0.00,WeatherCatV1.14B232,2013-05-23 19:30:00,
2013-05-23 13:35:00,79.2,24.1,29.60,SSE,147,6.0,9.0,13,0.00,,,0.00,WeatherCatV1.14B232,2013-05-23 19:35:00,
2013-05-23 13:40:00,79.4,20.3,29.60,North,4,2.0,9.0,11,0.00,,,0.00,WeatherCatV1.14B232,2013-05-23 19:40:00,
2013-05-23 13:45:00,79.9,20.7,29.60,West,259,16.0,16.0,11,0.00,,,0.00,WeatherCatV1.14B232,2013-05-23 19:45:00,
2013-05-23 13:50:00,79.4,18.1,29.61,WSW,245,9.0,24.0,10,0.00,,,0.00,WeatherCatV1.14B232,2013-05-23 19:50:00,
2013-05-23 13:55:00,79.5,20.4,29.61,South,171,5.0,22.0,11,0.00,,,0.00,WeatherCatV1.14B232,2013-05-23 19:55:00,
2013-05-23 14:00:00,79.3,20.2,29.60,South,181,7.0,13.0,11,0.00,,,0.00,WeatherCatV1.14B232,2013-05-23 20:00:00,
2013-05-23 14:05:00,79.6,22.5,29.59,ESE,116,8.0,19.0,12,0.00,,,0.00,WeatherCatV1.14B232,2013-05-23 20:05:00,
2013-05-23 14:10:00,79.9,18.5,29.59,East,81,8.0,21.0,10,0.00,,,0.00,WeatherCatV1.14B232,2013-05-23 20:10:00,
2013-05-23 14:15:00,79.7,22.6,29.60,WSW,239,9.0,18.0,12,0.00,,,0.00,WeatherCatV1.14B232,2013-05-23 20:15:00,
2013-05-23 14:20:00,80.0,18.5,29.59,South,186,6.0,16.0,10,0.00,,,0.00,WeatherCatV1.14B232,2013-05-23 20:20:00,
2013-05-23 14:25:00,79.9,18.5,29.59,West,271,3.0,8.0,10,0.00,,,0.00,WeatherCatV1.14B232,2013-05-23 20:25:00,
2013-05-23 14:30:00,80.1,26.6,29.59,West,262,3.0,5.0,14,0.00,,,0.00,WeatherCatV1.14B232,2013-05-23 20:30:00,
2013-05-23 14:35:00,81.0,19.3,29.58,SSE,148,6.0,14.0,10,0.00,,,0.00,WeatherCatV1.14B232,2013-05-23 20:35:00,
2013-05-23 14:40:00,81.0,16.9,29.58,WSW,248,10.0,19.0,9,0.00,,,0.00,WeatherCatV1.14B232,2013-05-23 20:40:00,
2013-05-23 14:45:00,80.7,19.1,29.58,SSE,162,5.0,15.0,10,0.00,,,0.00,WeatherCatV1.14B232,2013-05-23 20:45:00,
2013-05-23 14:50:00,80.4,16.4,29.59,South,179,7.0,15.0,9,0.00,,,0.00,WeatherCatV1.14B232,2013-05-23 20:50:00,
2013-05-23 14:55:00,80.3,16.3,29.58,West,271,8.0,8.0,9,0.00,,,0.00,WeatherCatV1.14B232,2013-05-23 20:55:00,
2013-05-23 15:00:00,80.5,18.9,29.57,SSE,155,6.0,22.0,10,0.00,,,0.00,WeatherCatV1.14B232,2013-05-23 21:00:00,
2013-05-23 15:05:00,80.4,18.9,29.57,South,172,5.0,12.0,10,0.00,,,0.00,WeatherCatV1.14B232,2013-05-23 21:05:00,
2013-05-23 15:10:00,80.7,16.6,29.58,SW,221,7.0,16.0,9,0.00,,,0.00,WeatherCatV1.14B232,2013-05-23 21:10:00,
2013-05-23 15:15:00,80.6,13.9,29.58,SW,229,3.0,17.0,8,0.00,,,0.00,WeatherCatV1.14B232,2013-05-23 21:15:00,
2013-05-23 15:20:00,80.4,16.4,29.57,ESE,114,7.0,9.0,9,0.00,,,0.00,WeatherCatV1.14B232,2013-05-23 21:20:00,
2013-05-23 15:25:00,80.6,13.9,29.58,SSE,167,9.0,24.0,8,0.00,,,0.00,WeatherCatV1.14B232,2013-05-23 21:25:00,
2013-05-23 15:30:00,80.4,16.4,29.57,WSW,239,8.0,11.0,9,0.00,,,0.00,WeatherCatV1.14B232,2013-05-23 21:30:00,
2013-05-23 15:35:00,80.9,16.8,29.57,South,188,3.0,10.0,9,0.00,,,0.00,WeatherCatV1.14B232,2013-05-23 21:35:00,
2013-05-23 15:40:00,81.0,16.9,29.57,WSW,253,3.0,15.0,9,0.00,,,0.00,WeatherCatV1.14B232,2013-05-23 21:40:00,
2013-05-23 15:45:00,81.0,19.3,29.57,SE,137,4.0,10.0,10,0.00,,,0.00,WeatherCatV1.14B232,2013-05-23 21:45:00,
2013-05-23 15:50:00,80.8,16.7,29.57,South,181,7.0,13.0,9,0.00,,,0.00,WeatherCatV1.14B232,2013-05-23 21:50:00,
2013-05-23 15:55:00,80.8,19.2,29.57,West,260,9.0,13.0,10,0.00,,,0.00,WeatherCatV1.14B232,2013-05-23 21:55:00,
2013-05-23 16:00:00,80.8,14.0,29.57,West,269,4.0,10.0,8,0.00,,,0.00,WeatherCatV1.14B232,2013-05-23 22:00:00,
2013-05-23 16:05:00,80.5,13.8,29.57,WSW,249,6.0,13.0,8,0.00,,,0.00,WeatherCatV1.14B232,2013-05-23 22:05:00,
2013-05-23 16:10:00,80.7,16.6,29.56,ESE,106,3.0,11.0,9,0.00,,,0.00,WeatherCatV1.14B232,2013-05-23 22:10:00,
2013-05-23 16:15:00,81.2,19.5,29.56,SSW,198,13.0,17.0,10,0.00,,,0.00,WeatherCatV1.14B232,2013-05-23 22:15:00,
2013-05-23 16:20:00,81.2,14.3,29.56,WSW,239,10.0,12.0,8,0.00,,,0.00,WeatherCatV1.14B232,2013-05-23 22:20:00,
2013-05-23 16:25:00,81.3,17.1,29.56,SW,226,6.0,8.0,9,0.00,,,0.00,WeatherCatV1.14B232,2013-05-23 22:25:00,
2013-05-23 16:30:00,81.4,17.2,29.56,WSW,245,3.0,9.0,9,0.00,,,0.00,WeatherCatV1.14B232,2013-05-23 22:30:00,
2013-05-23 16:35:00,81.2,14.3,29.56,SW,222,4.0,18.0,8,0.00,,,0.00,WeatherCatV1.14B232,2013-05-23 22:35:00,
2013-05-23 16:40:00,80.9,14.1,29.56,West,278,2.0,10.0,8,0.00,,,0.00,WeatherCatV1.14B232,2013-05-23 22:40:00,
2013-05-23 16:45:00,81.2,14.3,29.56,West,259,4.0,12.0,8,0.00,,,0.00,WeatherCatV1.14B232,2013-05-23 22:45:00,
2013-05-23 16:50:00,81.4,17.2,29.56,SW,229,4.0,18.0,9,0.00,,,0.00,WeatherCatV1.14B232,2013-05-23 22:50:00,
2013-05-23 16:55:00,81.2,14.3,29.56,WSW,239,3.0,23.0,8,0.00,,,0.00,WeatherCatV1.14B232,2013-05-23 22:55:00,
2013-05-23 17:00:00,80.7,16.6,29.57,West,273,15.0,18.0,9,0.00,,,0.00,WeatherCatV1.14B232,2013-05-23 23:00:00,
2013-05-23 17:05:00,80.6,16.6,29.56,WSW,257,13.0,17.0,9,0.00,,,0.00,WeatherCatV1.14B232,2013-05-23 23:05:00,
2013-05-23 17:10:00,80.5,13.8,29.57,West,260,22.0,22.0,8,0.00,,,0.00,WeatherCatV1.14B232,2013-05-23 23:10:00,
2013-05-23 17:15:00,80.1,10.5,29.55,SSE,150,4.0,15.0,7,0.00,,,0.00,WeatherCatV1.14B232,2013-05-23 23:15:00,
2013-05-23 17:20:00,80.0,13.4,29.55,SW,215,6.0,20.0,8,0.00,,,0.00,WeatherCatV1.14B232,2013-05-23 23:20:00,
2013-05-23 17:25:00,80.1,16.2,29.55,WSW,250,5.0,17.0,9,0.00,,,0.00,WeatherCatV1.14B232,2013-05-23 23:25:00,
2013-05-23 17:30:00,80.1,16.2,29.55,SW,233,2.0,3.0,9,0.00,,,0.00,WeatherCatV1.14B232,2013-05-23 23:30:00,
2013-05-23 17:35:00,80.2,16.3,29.55,WSW,249,2.0,4.0,9,0.00,,,0.00,WeatherCatV1.14B232,2013-05-23 23:35:00,
2013-05-23 17:40:00,80.2,18.7,29.55,South,181,2.0,8.0,10,0.00,,,0.00,WeatherCatV1.14B232,2013-05-23 23:40:00,
2013-05-23 17:45:00,80.1,16.2,29.56,West,266,11.0,13.0,9,0.00,,,0.00,WeatherCatV1.14B232,2013-05-23 23:45:00,
2013-05-23 17:50:00,79.8,13.3,29.55,SSW,205,6.0,14.0,8,0.00,,,0.00,WeatherCatV1.14B232,2013-05-23 23:50:00,
2013-05-23 17:55:00,79.6,15.8,29.54,SSW,197,2.0,6.0,9,0.00,,,0.00,WeatherCatV1.14B232,2013-05-23 23:55:00,
2013-05-23 18:00:00,79.8,16.0,29.55,WNW,294,7.0,12.0,9,0.00,,,0.00,WeatherCatV1.14B232,2013-05-24 00:00:00,
2013-05-23 18:05:00,79.6,13.1,29.55,SW,236,4.0,12.0,8,0.00,,,0.00,WeatherCatV1.14B232,2013-05-24 00:05:00,
2013-05-23 18:10:00,79.4,15.7,29.55,SSE,158,3.0,7.0,9,0.00,,,0.00,WeatherCatV1.14B232,2013-05-24 00:10:00,
2013-05-23 18:15:00,79.5,15.7,29.55,West,274,4.0,11.0,9,0.00,,,0.00,WeatherCatV1.14B232,2013-05-24 00:15:00,
2013-05-23 18:20:00,79.4,15.7,29.55,SSW,211,3.0,8.0,9,0.00,,,0.00,WeatherCatV1.14B232,2013-05-24 00:20:00,
2013-05-23 18:25:00,79.3,12.9,29.55,West,273,7.0,15.0,8,0.00,,,0.00,WeatherCatV1.14B232,2013-05-24 00:25:00,
2013-05-23 18:30:00,79.2,12.8,29.55,SE,146,3.0,14.0,8,0.00,,,0.00,WeatherCatV1.14B232,2013-05-24 00:30:00,
2013-05-23 18:35:00,79.3,15.6,29.55,SW,235,3.0,5.0,9,0.00,,,0.00,WeatherCatV1.14B232,2013-05-24 00:35:00,
2013-05-23 18:40:00,79.2,12.8,29.55,WSW,245,4.0,9.0,8,0.00,,,0.00,WeatherCatV1.14B232,2013-05-24 00:40:00,
2013-05-23 18:45:00,79.1,9.8,29.55,West,281,4.0,19.0,7,0.00,,,0.00,WeatherCatV1.14B232,2013-05-24 00:45:00,
2013-05-23 18:50:00,78.9,12.6,29.55,WSW,250,5.0,7.0,8,0.00,,,0.00,WeatherCatV1.14B232,2013-05-24 00:50:00,
2013-05-23 18:55:00,78.9,12.6,29.55,SSW,212,10.0,14.0,8,0.00,,,0.00,WeatherCatV1.14B232,2013-05-24 00:55:00,
2013-05-23 19:00:00,78.9,15.3,29.55,West,267,4.0,5.0,9,0.00,,,0.00,WeatherCatV1.14B232,2013-05-24 01:00:00,
2013-05-23 19:05:00,78.9,12.6,29.55,WSW,252,3.0,9.0,8,0.00,,,0.00,WeatherCatV1.14B232,2013-05-24 01:05:00,
2013-05-23 19:10:00,79.1,12.8,29.55,WSW,257,7.0,17.0,8,0.00,,,0.00,WeatherCatV1.14B232,2013-05-24 01:10:00,
2013-05-23 19:15:00,79.1,12.8,29.55,West,260,3.0,10.0,8,0.00,,,0.00,WeatherCatV1.14B232,2013-05-24 01:15:00,
2013-05-23 19:20:00,79.1,12.8,29.54,SE,129,1.0,5.0,8,0.00,,,0.00,WeatherCatV1.14B232,2013-05-24 01:20:00,
2013-05-23 19:25:00,79.2,17.9,29.54,West,281,1.0,2.0,10,0.00,,,0.00,WeatherCatV1.14B232,2013-05-24 01:25:00,
2013-05-23 19:30:00,79.0,12.7,29.54,SE,128,0.0,2.0,8,0.00,,,0.00,WeatherCatV1.14B232,2013-05-24 01:30:00,
2013-05-23 19:35:00,78.6,15.1,29.54,SW,228,2.0,2.0,9,0.00,,,0.00,WeatherCatV1.14B232,2013-05-24 01:35:00,
2013-05-23 19:40:00,78.6,15.1,29.55,West,267,3.0,10.0,9,0.00,,,0.00,WeatherCatV1.14B232,2013-05-24 01:40:00,
2013-05-23 19:45:00,78.1,17.1,29.55,West,259,3.0,4.0,10,0.00,,,0.00,WeatherCatV1.14B232,2013-05-24 01:45:00,
2013-05-23 19:50:00,77.5,14.2,29.55,WSW,250,2.0,3.0,9,0.00,,,0.00,WeatherCatV1.14B232,2013-05-24 01:50:00,
2013-05-23 19:55:00,76.7,18.2,29.55,WSW,245,2.0,3.0,11,0.00,,,0.00,WeatherCatV1.14B232,2013-05-24 01:55:00,
2013-05-23 20:00:00,75.8,19.6,29.55,NNE,19,0.0,1.0,12,0.00,,,0.00,WeatherCatV1.14B232,2013-05-24 02:00:00,
2013-05-23 20:05:00,74.8,16.8,29.55,SW,219,3.0,3.0,11,0.00,,,0.00,WeatherCatV1.14B232,2013-05-24 02:05:00,
2013-05-23 20:10:00,74.7,18.7,29.55,SW,232,2.0,2.0,12,0.00,,,0.00,WeatherCatV1.14B232,2013-05-24 02:10:00,
2013-05-23 20:15:00,74.8,14.6,29.56,WSW,252,9.0,19.0,10,0.00,,,0.00,WeatherCatV1.14B232,2013-05-24 02:15:00,
2013-05-23 20:20:00,75.0,16.9,29.56,SW,231,1.0,2.0,11,0.00,,,0.00,WeatherCatV1.14B232,2013-05-24 02:20:00,
2013-05-23 20:25:00,74.6,14.4,29.56,SW,228,1.0,6.0,10,0.00,,,0.00,WeatherCatV1.14B232,2013-05-24 02:25:00,
2013-05-23 20:30:00,74.2,16.3,29.56,West,264,3.0,3.0,11,0.00,,,0.00,WeatherCatV1.14B232,2013-05-24 02:30:00,
2013-05-23 20:35:00,74.1,14.1,29.56,SW,218,3.0,8.0,10,0.00,,,0.00,WeatherCatV1.14B232,2013-05-24 02:35:00,
2013-05-23 20:40:00,74.4,16.5,29.57,SW,216,1.0,5.0,11,0.00,,,0.00,WeatherCatV1.14B232,2013-05-24 02:40:00,
2013-05-23 20:45:00,74.0,16.2,29.56,West,263,0.0,2.0,11,0.00,,,0.00,WeatherCatV1.14B232,2013-05-24 02:45:00,
2013-05-23 20:50:00,72.8,17.2,29.57,WSW,255,1.0,2.0,12,0.00,,,0.00,WeatherCatV1.14B232,2013-05-24 02:50:00,
2013-05-23 20:55:00,71.9,20.1,29.57,West,269,0.0,2.0,14,0.00,,,0.00,WeatherCatV1.14B232,2013-05-24 02:55:00,
2013-05-23 21:00:00,70.4,20.5,29.58,West,281,0.0,1.0,15,0.00,,,0.00,WeatherCatV1.14B232,2013-05-24 03:00:00,
2013-05-23 21:05:00,69.8,23.0,29.57,WSW,238,0.0,0.0,17,0.00,,,0.00,WeatherCatV1.14B232,2013-05-24 03:05:00,
2013-05-23 21:10:00,68.9,19.4,29.58,West,259,1.0,3.0,15,0.00,,,0.00,WeatherCatV1.14B232,2013-05-24 03:10:00,
2013-05-23 21:15:00,68.8,24.9,29.58,NNE,18,0.0,1.0,19,0.00,,,0.00,WeatherCatV1.14B232,2013-05-24 03:15:00,
2013-05-23 21:20:00,67.5,26.2,29.58,North,353,4.0,4.0,21,0.00,,,0.00,WeatherCatV1.14B232,2013-05-24 03:20:00,
2013-05-23 21:25:00,66.0,24.9,29.59,East,82,0.0,3.0,21,0.00,,,0.00,WeatherCatV1.14B232,2013-05-24 03:25:00,
2013-05-23 21:30:00,65.2,25.4,29.59,NNE,15,1.0,1.0,22,0.00,,,0.00,WeatherCatV1.14B232,2013-05-24 03:30:00,
2013-05-23 21:35:00,64.6,24.9,29.59,SSE,148,1.0,1.0,22,0.00,,,0.00,WeatherCatV1.14B232,2013-05-24 03:35:00,
2013-05-23 21:40:00,63.6,28.1,29.60,East,99,2.0,2.0,26,0.00,,,0.00,WeatherCatV1.14B232,2013-05-24 03:40:00,
2013-05-23 21:45:00,62.7,26.4,29.60,NNE,23,1.0,1.0,25,0.00,,,0.00,WeatherCatV1.14B232,2013-05-24 03:45:00,
2013-05-23 21:50:00,61.8,28.4,29.60,SSE,159,0.0,4.0,28,0.00,,,0.00,WeatherCatV1.14B232,2013-05-24 03:50:00,
2013-05-23 21:55:00,60.9,30.1,29.60,SW,235,1.0,1.0,31,0.00,,,0.00,WeatherCatV1.14B232,2013-05-24 03:55:00,
2013-05-23 22:00:00,60.3,30.3,29.61,SSW,200,1.0,2.0,32,0.00,,,0.00,WeatherCatV1.14B232,2013-05-24 04:00:00,
2013-05-23 22:01:00,60.2,29.5,29.60,SE,145,0.0,2.0,31,0.00,,,0.00,WeatherCatV1.14B232,2013-05-24 04:01:00,
2013-05-23 22:06:00,59.7,29.0,29.61,NE,51,0.0,1.0,31,0.00,,,0.00,WeatherCatV1.14B232,2013-05-24 04:06:00,
2013-05-23 22:11:00,59.2,30.8,29.61,WSW,242,1.0,1.0,34,0.00,,,0.00,WeatherCatV1.14B232,2013-05-24 04:11:00,
2013-05-23 22:16:00,58.2,33.4,29.61,ESE,110,0.0,1.0,39,0.00,,,0.00,WeatherCatV1.14B232,2013-05-24 04:16:00,
2013-05-23 22:21:00,57.2,31.8,29.61,SSE,160,1.0,3.0,38,0.00,,,0.00,WeatherCatV1.14B232,2013-05-24 04:21:00,
2013-05-23 22:26:00,56.3,31.0,29.61,ENE,70,0.0,0.0,38,0.00,,,0.00,WeatherCatV1.14B232,2013-05-24 04:26:00,
2013-05-23 22:31:00,55.6,34.0,29.61,ESE,116,0.0,0.0,44,0.00,,,0.00,WeatherCatV1.14B232,2013-05-24 04:31:00,
2013-05-23 22:36:00,55.2,31.9,29.62,WSW,245,2.0,2.0,41,0.00,,,0.00,WeatherCatV1.14B232,2013-05-24 04:36:00,
2013-05-23 22:41:00,54.5,31.9,29.62,South,188,0.0,2.0,42,0.00,,,0.00,WeatherCatV1.14B232,2013-05-24 04:41:00,
2013-05-23 22:46:00,54.6,31.4,29.62,North,355,1.0,2.0,41,0.00,,,0.00,WeatherCatV1.14B232,2013-05-24 04:46:00,
2013-05-23 22:51:00,54.1,34.3,29.62,East,101,2.0,2.0,47,0.00,,,0.00,WeatherCatV1.14B232,2013-05-24 04:51:00,
2013-05-23 22:56:00,53.3,33.6,29.63,WSW,238,0.0,0.0,47,0.00,,,0.00,WeatherCatV1.14B232,2013-05-24 04:56:00,
2013-05-23 23:01:00,52.7,33.0,29.62,NE,43,0.0,1.0,47,0.00,,,0.00,WeatherCatV1.14B232,2013-05-24 05:01:00,
2013-05-23 23:06:00,52.2,33.1,29.63,SE,125,0.0,1.0,48,0.00,,,0.00,WeatherCatV1.14B232,2013-05-24 05:06:00,
2013-05-23 23:11:00,51.8,34.3,29.63,WSW,248,1.0,4.0,51,0.00,,,0.00,WeatherCatV1.14B232,2013-05-24 05:11:00,
2013-05-23 23:16:00,51.4,33.9,29.63,East,86,2.0,2.0,51,0.00,,,0.00,WeatherCatV1.14B232,2013-05-24 05:16:00,
2013-05-23 23:21:00,51.4,33.9,29.63,West,259,1.0,2.0,51,0.00,,,0.00,WeatherCatV1.14B232,2013-05-24 05:21:00,
2013-05-23 23:26:00,51.2,33.2,29.63,ESE,103,0.0,1.0,50,0.00,,,0.00,WeatherCatV1.14B232,2013-05-24 05:26:00,
2013-05-23 23:31:00,51.0,32.5,29.63,WSW,245,0.0,2.0,49,0.00,,,0.00,WeatherCatV1.14B232,2013-05-24 05:31:00,
2013-05-23 23:36:00,51.0,31.5,29.64,East,84,1.0,1.0,47,0.00,,,0.00,WeatherCatV1.14B232,2013-05-24 05:36:00,
2013-05-23 23:41:00,50.9,31.4,29.64,ENE,74,0.0,3.0,47,0.00,,,0.00,WeatherCatV1.14B232,2013-05-24 05:41:00,
2013-05-23 23:46:00,50.8,31.8,29.64,South,177,2.0,5.0,48,0.00,,,0.00,WeatherCatV1.14B232,2013-05-24 05:46:00,
2013-05-23 23:51:00,50.1,31.7,29.64,ESE,102,1.0,1.0,49,0.00,,,0.00,WeatherCatV1.14B232,2013-05-24 05:51:00,
2013-05-23 23:56:00,50.0,32.1,29.64,NE,41,1.0,1.0,50,0.00,,,0.00,WeatherCatV1.14B232,2013-05-24 05:56:00,